Track STARLINK-3083 now! 10-day predictions STARLINK-3083 is classified as:
1 49158U 21082AE 22231.49452560 .00002049 00000-0 18696-3 0 9993 2 49158 70.0019 307.6087 0003079 257.9724 102.1089 14.96714517 53118